EW9060 Weather Reports


time (UTC)temp
F
wind
direction
speed
knots
gust
knots
rain 1hr
in
rain 24hr
in
rain mn
in
humidity
%
barometer
mb
20260902033059 68 191 0.9 7.0 0.00 0.00 0.00 59 1015.8
20260902031550 68 196 0.9 6.1 0.00 0.00 0.00 58 1015.6
20260902030044 69 220 1.7 8.7 0.00 0.00 0.00 56 1015.4
20260902024546 70 192 2.6 8.7 0.00 0.00 0.00 55 1015.2
20260902023043 70 173 3.5 10.4 0.00 0.00 0.00 53 1015.1
20260902021542 71 156 0.9 6.1 0.00 0.00 0.00 52 1015.0
20260902020042 72 192 1.7 6.1 0.00 0.00 0.00 50 1014.9
20260902014542 72 282 2.6 8.7 0.00 0.00 0.00 48 1014.9
20260902013040 73 269 1.7 9.6 0.00 0.00 0.00 46 1014.8
20260902011539 74 190 1.7 7.8 0.00 0.00 0.00 44 1014.6
20260902010039 76 194 2.6 9.6 0.00 0.00 0.00 42 1014.7
20260902004538 76 175 2.6 11.3 0.00 0.00 0.00 42 1014.6
20260902003037 77 178 6.1 14.8 0.00 0.00 0.00 41 1014.6
20260902001537 77 260 0.9 10.4 0.00 0.00 0.00 41 1014.6
20260902000039 78 163 2.6 10.4 0.00 0.00 0.00 40 1014.7
20260901234538 78 195 3.5 11.3 0.00 0.00 0.00 39 1014.8
20260901233042 78 259 3.5 9.6 0.00 0.00 0.00 39 1014.7
20260901231533 79 232 2.6 9.6 0.00 0.00 0.00 38 1014.9
20260901230034 79 175 2.6 7.8 0.00 0.00 0.00 40 1015.0
20260901224536 79 158 2.6 8.7 0.00 0.00 0.00 40 1015.0
20260901223030 79 254 4.3 12.2 0.00 0.00 0.00 39 1015.1
20260901221527 78 207 2.6 8.7 0.00 0.00 0.00 39 1015.3
20260901220026 78 167 2.6 9.6 0.00 0.00 0.00 40 1015.4
20260901214525 78 186 2.6 7.8 0.00 0.00 0.00 41 1015.6
20260901213027 78 146 3.5 11.3 0.00 0.00 0.00 42 1015.7
20260901211526 77 227 1.7 10.4 0.00 0.00 0.00 43 1015.7
20260901210021 77 210 4.3 13.0 0.00 0.00 0.00 44 1015.8
20260901204519 77 173 3.5 10.4 0.00 0.00 0.00 43 1015.8
20260901203020 77 160 3.5 8.7 0.00 0.00 0.00 43 1016.1
20260901201514 75 175 3.5 8.7 0.00 0.00 0.00 47 1016.3
20260901200013 75 237 4.3 8.7 0.00 0.00 0.00 46 1016.3
20260901194514 75 169 2.6 7.8 0.00 0.00 0.00 48 1016.3
20260901193008 74 280 2.6 9.6 0.00 0.00 0.00 48 1016.5
20260901191507 73 203 1.7 6.1 0.00 0.00 0.00 49 1016.7
20260901190010 73 229 2.6 7.0 0.00 0.00 0.00 50 1016.8
20260901184503 73 177 2.6 6.1 0.00 0.00 0.00 50 1016.9
20260901183101 72 126 1.7 6.1 0.00 0.00 0.00 50 1016.9
20260901181602 72 162 1.7 6.1 0.00 0.00 0.00 52 1016.9
20260901180055 70 132 0.9 7.0 0.00 0.00 0.00 54 1016.9
20260901174550 69 154 0.0 7.8 0.00 0.00 0.00 58 1016.9
20260901173057 69 93 1.7 6.1 0.00 0.00 0.00 55 1016.8
20260901171557 68 198 0.9 5.2 0.00 0.00 0.00 61 1016.6
20260901170044 68 217 0.0 6.1 0.00 0.00 0.00 63 1016.6
20260901164540 67 111 0.0 6.1 0.00 0.00 0.00 65 1016.4
20260901163036 65 234 0.9 4.3 0.00 0.00 0.00 68 1016.5
20260901161531 64 217 0.0 6.1 0.00 0.00 0.00 71 1016.5
20260901160030 63 175 1.7 7.8 0.00 0.00 0.00 74 1016.3
20260901154523 62 154 0.9 7.0 0.00 0.00 0.00 76 1016.1
20260901153021 61 150 2.6 8.7 0.00 0.00 0.00 78 1016.0
20260901151529 60 179 0.9 6.1 0.00 0.00 0.00 79 1015.7
20260901150020 59 138 0.0 4.3 0.00 0.00 0.00 81 1015.5
20260901144519 59 134 1.7 6.1 0.00 0.00 0.00 82 1015.4
20260901143012 58 127 1.7 7.0 0.00 0.00 0.00 82 1015.2
20260901141509 58 119 1.7 7.0 0.00 0.00 0.00 83 1015.0
20260901140006 57 162 0.0 7.8 0.00 0.00 0.00 84 1014.7
20260901134504 57 133 0.9 4.3 0.00 0.00 0.00 85 1014.3
20260901133001 58 133 0.9 6.1 0.00 0.00 0.00 84 1014.3
20260901131603 58 155 0.9 7.0 0.00 0.00 0.00 84 1014.2
20260901130058 58 162 0.9 4.3 0.00 0.00 0.00 83 1014.1
20260901124556 58 147 1.7 5.2 0.00 0.00 0.00 83 1013.8
20260901123117 58 160 0.0 4.3 0.00 0.00 0.00 82 1013.7
20260901121605 58 136 0.0 4.3 0.00 0.00 0.00 82 1013.8
20260901120056 59 132 1.7 7.0 0.00 0.00 0.00 81 1013.8
20260901114550 59 187 0.9 5.2 0.00 0.00 0.00 81 1013.7
20260901113056 59 189 1.7 7.0 0.00 0.00 0.00 80 1013.5
20260901111550 59 150 3.5 8.7 0.00 0.00 0.00 80 1013.4
20260901110046 59 135 2.6 7.8 0.00 0.00 0.00 79 1013.4
20260901104555 59 155 3.5 9.6 0.00 0.00 0.00 78 1013.4
20260901103042 59 144 2.6 8.7 0.00 0.00 0.00 78 1013.3
20260901101541 59 164 2.6 7.8 0.00 0.00 0.00 77 1013.2
20260901100055 59 160 2.6 8.7 0.00 0.00 0.00 77 1013.2
20260901094539 59 130 2.6 7.8 0.00 0.00 0.00 78 1013.3
20260901093037 59 150 4.3 9.6 0.00 0.00 0.00 78 1013.2
20260901091538 59 157 4.3 9.6 0.00 0.00 0.00 78 1013.2
20260901090039 59 107 0.9 9.6 0.00 0.00 0.00 77 1013.2
20260901084531 59 144 3.5 8.7 0.00 0.00 0.00 77 1013.3
20260901083029 60 112 2.6 8.7 0.00 0.00 0.00 77 1013.4
20260901081526 60 115 3.5 10.4 0.00 0.00 0.00 77 1013.3
20260901080024 61 136 0.9 11.3 0.00 0.00 0.00 77 1013.3
20260901074521 61 161 3.5 13.0 0.00 0.00 0.00 78 1013.1
20260901073025 61 175 5.2 12.2 0.00 0.00 0.00 77 1012.9
20260901071525 61 154 3.5 14.8 0.00 0.00 0.00 77 1012.9
20260901070016 61 202 4.3 9.6 0.00 0.00 0.00 76 1012.8
20260901064512 61 198 1.7 13.0 0.00 0.00 0.00 75 1012.8
20260901063020 61 167 3.5 10.4 0.00 0.00 0.00 75 1012.8
20260901061511 61 155 3.5 13.9 0.00 0.00 0.00 75 1012.8
20260901060014 61 158 3.5 12.2 0.00 0.00 0.00 74 1012.7
20260901054509 61 143 2.6 13.9 0.00 0.00 0.00 74 1012.7
20260901053009 61 172 5.2 13.0 0.00 0.00 0.00 73 1012.8
20260901051508 62 159 3.5 11.3 0.00 0.00 0.00 73 1012.7
20260901050008 62 197 4.3 14.8 0.00 0.00 0.00 73 1012.6
20260901044508 62 157 5.2 15.6 0.00 0.00 0.00 72 1012.6
20260901043005 62 173 4.3 13.0 0.00 0.00 0.00 72 1012.5
20260901041505 63 153 5.2 16.5 0.00 0.00 0.00 72 1012.4
20260901040012 63 150 4.3 13.9 0.00 0.00 0.00 71 1012.2
20260901034504 63 197 3.5 11.3 0.00 0.00 0.00 70 1012.0